Temperature
19 17 17 17 17 18 18 18 17 17 18 17 17 17 17 17 17 16 17 17 17 18 18 18 18 18 17 17 17 17 17 16 16 16 16 16 15 15 15 15 15 15 15 14
17 17 18 18 18 18 18 18 17 17 18 18 17 16 16 16 16 17 17 17 17 18 18 18 18 17 17 17 17 17 17 16 16 16 16 16 15 15 15 15 15 15 14 14
18 18 19 19 18 18 18 17 17 17 17 17 17 16 16 16 16 17 17 17 17 18 18 18 18 17 17 17 17 17 16 16 16 16 16 15 15 15 15 15 15 15 14 14
18 18 19 19 18 18 18 18 18 18 17 15 17 15 16 15 15 15 16 16 17 17 18 18 18 17 17 17 17 17 16 16 16 16 15 15 15 15 15 15 15 15 14 14
18 18 19 19 19 18 18 18 17 17 16 15 15 15 15 15 15 15 15 16 17 17 17 18 18 18 17 17 17 17 16 16 16 15 15 15 15 15 15 15 15 14 14 14
17 18 19 19 19 18 18 17 16 14 14 15 15 15 15 14 15 15 15 16 17 17 17 17 18 17 17 17 17 16 16 16 16 15 15 15 15 15 15 15 14 14 14 14
17 18 18 19 18 17 17 15 15 15 14 14 15 15 14 15 15 15 15 16 17 17 17 17 17 17 17 17 17 16 16 16 16 15 15 15 15 15 15 14 14 14 14 14
16 16 18 18 18 17 16 16 15 15 14 14 14 14 15 15 15 15 15 16 17 17 17 17 17 17 17 17 17 16 16 16 16 15 15 15 15 15 14 14 14 14 14 14
15 16 17 18 18 17 16 15 15 14 14 14 14 14 14 15 15 15 15 15 16 16 16 16 17 17 17 16 16 16 16 16 16 15 15 15 15 15 14 14 14 14 14 14
15 16 17 17 18 17 16 14 13 14 14 14 14 14 14 15 14 14 13 14 15 16 16 16 16 16 16 16 16 16 16 16 15 15 15 15 15 14 14 14 14 14 14 13
15 15 15 16 16 16 15 14 13 12 13 13 14 14 15 14 13 13 13 14 14 15 16 16 16 16 16 16 16 16 16 15 15 15 15 15 14 14 14 14 14 13 13 13
13 13 14 15 16 16 16 15 13 14 13 12 12 13 14 13 13 13 13 14 14 15 15 15 15 15 15 15 15 15 15 15 15 15 15 15 14 14 14 14 14 13 13 13
13 13 13 14 14 15 15 14 13 12 11 11 12 13 14 13 13 13 13 13 13 14 15 15 15 15 15 15 15 15 15 15 15 14 14 14 14 14 14 14 13 13 13 13
14 12 13 14 14 14 14 14 13 13 12 11 12 13 13 13 12 12 12 12 13 13 14 14 14 14 14 14 14 14 14 14 14 14 14 14 14 14 14 13 13 13 13 12
13 13 13 13 14 14 14 14 13 13 12 12 12 12 13 12 12 12 12 12 12 13 13 13 13 13 13 13 14 14 14 14 14 14 14 14 14 13 13 13 13 13 12 12
11 12 13 13 14 13 13 13 13 13 13 12 12 12 12 12 12 11 11 11 11 12 12 12 12 13 13 13 13 13 13 13 13 13 13 13 13 13 13 13 12 12 12 12
11 11 12 12 12 13 12 12 12 12 12 12 12 12 11 11 11 11 11 11 11 11 12 12 12 12 12 12 12 12 12 13 13 13 13 13 13 12 12 12 12 12 12 12
10 10 9 10 12 13 13 12 12 12 12 11 11 11 11 11 11 11 11 11 11 11 11 11 11 11 12 12 12 12 12 12 12 12 12 12 12 12 12 12 12 11 11 11
10 10 9 9 11 11 12 12 11 11 11 11 10 10 10 10 10 10 11 11 11 11 11 11 11 11 11 11 11 11 11 12 12 12 12 12 11 11 11 11 11 11 11 11
9 9 9 9 11 12 12 12 12 12 11 10 10 10 9 9 8 9 11 11 11 11 11 11 11 11 11 11 11 11 11 11 11 11 11 11 11 11 11 11 11 11 10 10
10 9 9 9 10 10 11 11 12 11 11 11 10 10 9 9 9 10 10 10 11 11 10 10 10 10 10 10 10 10 10 10 10 10 10 10 10 10 10 10 10 10 10 10
9 9 9 8 10 10 10 10 10 10 11 11 11 10 10 10 10 10 10 10 10 10 10 10 10 10 10 9 9 9 9 10 10 10 10 10 10 10 10 9 9 9 9 9
8 9 8 9 10 10 10 10 11 11 11 11 11 10 10 10 10 10 10 10 10 9 9 9 9 9 9 9 9 9 9 9 9 9 9 9 9 9 9 9 9 9 9 9
8 8 7 8 8 9 10 10 11 11 11 11 11 10 10 10 10 10 10 9 9 9 9 9 9 8 8 8 8 8 8 8 8 8 9 9 9 8 8 8 8 8 8 8
8 7 7 7 8 9 10 10 10 10 10 10 10 10 10 10 10 10 9 9 9 9 8 8 8 8 8 8 8 8 8 8 8 8 8 8 8 8 8 8 8 8 8 7
6 7 7 8 8 8 9 10 10 10 10 10 10 9 10 10 9 9 9 9 9 8 8 8 8 8 8 7 8 8 7 7 7 7 7 7 7 7 7 7 7 7 7 7
Wind_Speed
4 4 2 5 5 4 4 3 3 4 2 2 4 6 7 4 5 6 6 6 7 8 6 4 4 4 4 4 4 5 5 4 4 2 2 2 1 0 0 0 2 3 4 5
5 1 4 4 4 3 3 2 2 3 1 2 2 5 6 4 5 7 8 9 9 7 4 4 4 5 5 6 5 5 5 5 5 3 3 2 2 1 0 0 1 2 3 4
3 4 1 4 3 3 3 4 4 3 2 2 2 5 4 3 1 2 4 6 7 9 8 7 6 6 6 7 7 7 6 5 5 3 3 3 3 2 1 0 0 0 2 3
2 3 1 2 2 4 3 4 4 3 1 2 1 3 6 4 3 3 3 3 5 6 6 7 7 6 7 8 6 6 6 5 4 5 4 5 3 3 3 2 1 1 1 2
2 1 2 2 3 4 4 1 2 2 2 1 2 1 6 4 4 5 4 4 4 5 5 6 7 8 7 6 6 5 5 5 5 5 5 5 3 2 1 1 1 1 0 1
2 2 3 3 1 2 3 5 5 5 4 1 2 2 5 3 4 5 4 3 3 3 3 4 5 5 4 4 4 4 5 5 5 5 5 5 5 3 2 2 2 1 1 1
4 3 2 2 2 3 5 5 3 4 3 4 2 2 5 5 3 3 4 4 3 2 2 2 3 4 5 6 6 5 6 5 5 5 5 5 6 5 5 4 4 3 2 2
1 4 3 0 3 3 3 6 6 3 3 4 2 3 5 3 3 2 2 3 2 1 2 2 3 4 5 6 6 6 7 6 6 6 6 6 5 5 4 5 4 5 4 4
3 4 4 1 1 6 4 3 5 5 1 1 4 5 6 3 4 4 4 4 3 2 2 2 2 3 4 5 6 7 7 6 6 6 6 6 5 5 5 4 4 4 4 4
4 2 4 3 4 4 4 6 5 4 2 3 4 4 4 4 5 6 5 5 5 3 2 1 1 2 3 4 4 4 5 5 5 5 5 5 5 5 5 4 5 5 4 3
3 3 4 3 1 2 3 4 4 3 3 4 3 5 2 2 3 3 4 5 5 4 2 1 1 1 2 1 2 2 3 3 3 4 4 4 4 4 4 4 5 5 4 4
2 4 1 4 3 1 3 5 6 4 3 3 3 5 2 1 2 2 4 5 5 4 2 1 1 1 1 1 1 1 2 2 3 4 4 4 4 4 4 5 4 4 4 4
3 4 2 5 4 3 2 2 4 5 4 4 4 5 2 4 5 4 4 5 4 4 3 3 3 2 1 1 0 0 1 2 2 2 3 3 3 3 5 5 4 3 3 4
4 4 5 6 5 3 2 2 3 4 4 5 6 7 7 6 5 5 4 4 4 4 3 3 2 2 2 1 1 1 1 1 1 1 2 3 3 4 5 4 4 4 3 3
4 2 3 4 4 2 3 4 4 6 7 7 6 6 8 5 4 3 3 3 4 4 4 3 2 2 2 2 2 2 2 1 1 1 2 3 3 2 2 3 3 3 4 4
3 2 1 2 2 1 2 4 4 5 4 5 4 6 4 3 1 2 2 2 3 3 3 3 3 3 3 3 3 2 2 2 1 2 3 2 1 1 2 2 2 3 3 4
2 3 2 3 3 3 3 4 4 4 3 5 5 5 1 2 2 2 1 2 2 2 3 3 3 2 2 2 2 2 2 2 1 1 2 2 2 2 2 2 2 3 4 3
4 3 2 1 1 4 5 2 2 2 2 1 1 1 1 2 2 1 1 1 2 2 2 2 2 3 3 2 2 2 2 2 1 2 2 2 2 2 2 1 2 3 3 3
4 5 3 2 2 6 4 1 1 2 3 1 0 2 2 3 3 3 2 1 2 2 2 2 2 2 2 3 2 2 3 3 2 3 3 3 2 2 2 2 3 3 3 4
4 4 4 3 2 5 4 3 2 1 2 2 0 0 1 3 2 4 4 3 3 3 2 2 2 2 2 3 2 2 2 2 3 3 4 3 2 2 3 4 3 3 3 4
2 2 2 3 4 6 4 3 2 2 5 3 2 2 2 2 4 4 3 3 2 3 3 2 2 2 3 3 1 1 2 3 4 3 3 3 2 2 3 2 2 2 2 2
4 3 3 3 3 6 2 2 3 4 3 2 2 2 2 3 2 2 1 2 2 3 3 2 2 3 4 2 1 2 4 4 3 2 2 3 2 2 2 1 2 2 2 2
4 5 5 6 6 3 1 2 3 1 1 2 2 3 2 2 2 2 2 2 2 3 3 3 2 4 4 3 2 3 5 4 3 2 2 3 2 1 1 1 1 1 2 2
3 1 2 3 5 3 3 2 2 2 2 3 3 3 2 3 3 3 4 3 3 3 3 2 2 3 5 5 3 3 4 3 2 2 2 2 2 2 2 1 1 1 2 2
4 2 2 4 4 4 4 3 3 3 2 2 2 2 2 3 4 4 4 4 4 3 3 2 2 3 5 5 4 4 3 2 2 2 2 2 2 1 2 2 2 2 3 4
3 4 5 6 5 4 5 4 3 2 3 3 2 3 3 3 4 4 4 4 3 4 3 3 3 3 4 4 4 4 3 2 1 1 2 2 1 1 1 2 3 3 3 4
Wind_Direction
48 77 186 212 191 180 172 185 240 255 242 173 225 255 265 231 207 218 217 214 218 223 226 203 188 176 164 162 162 168 164 162 148 146 144 130 141 100 47 83 141 139 137 134
43 313 239 187 169 166 173 193 258 290 277 183 250 282 278 229 211 216 216 215 218 224 219 203 186 176 178 179 182 179 180 176 174 177 168 152 143 161 201 0 91 144 146 145
169 248 186 137 138 171 209 199 221 234 359 31 345 319 315 301 260 245 232 222 216 211 211 207 196 192 188 191 194 192 189 183 179 158 122 99 78 56 38 355 310 223 164 157
223 270 150 137 182 167 241 235 198 178 97 302 34 301 303 299 315 300 271 237 227 223 216 208 199 197 201 204 198 193 188 181 175 160 156 156 164 190 213 208 216 230 170 165
263 208 144 191 223 175 210 108 126 131 151 28 15 181 297 327 322 301 283 258 246 229 216 213 208 208 207 197 190 192 187 181 177 175 175 174 179 197 192 159 171 206 230 171
260 259 184 192 133 123 125 77 59 49 71 346 266 179 293 284 260 292 305 297 270 239 215 216 212 198 190 180 179 179 182 187 182 184 184 185 185 180 166 190 199 212 228 233
344 336 333 127 90 42 79 82 31 3 7 264 273 176 254 264 260 265 290 301 286 245 214 215 199 186 187 185 187 188 189 199 193 192 199 199 197 189 194 201 203 201 205 219
36 307 305 38 160 169 140 135 152 198 232 280 324 233 253 267 300 301 302 317 321 267 224 217 210 196 193 195 193 193 199 208 202 200 210 209 203 201 210 207 202 206 211 214
163 266 300 314 141 135 131 149 155 136 168 273 280 290 305 326 354 6 5 4 343 295 250 234 222 201 190 193 199 199 203 210 209 209 212 212 207 207 213 211 204 208 212 208
155 241 299 312 71 45 119 139 100 118 163 260 289 277 266 311 328 344 349 339 327 318 297 269 233 219 205 203 201 190 197 208 213 213 214 217 213 213 215 209 212 211 208 199
125 159 310 9 120 182 88 96 105 119 156 170 251 272 245 246 292 315 319 322 324 318 303 294 294 256 195 159 156 180 195 206 217 215 214 210 210 206 208 215 221 216 205 195
126 123 251 270 283 194 144 149 143 152 220 185 197 262 312 322 316 330 329 331 340 342 344 357 358 23 67 103 156 191 200 221 230 218 211 215 215 209 212 220 224 220 212 204
125 109 50 348 351 17 66 138 142 128 130 170 191 256 322 1 357 353 346 343 348 2 13 23 34 34 34 24 15 233 225 237 250 223 213 219 221 216 224 227 222 211 214 210
110 114 164 204 230 229 257 249 182 150 174 210 221 250 293 315 327 332 338 342 349 4 10 21 24 20 15 14 350 338 317 293 267 215 211 221 231 228 227 224 217 207 209 208
97 149 203 242 255 218 236 241 212 205 205 205 229 234 261 274 290 303 321 347 8 8 8 7 4 358 358 357 347 336 315 304 253 217 224 239 244 242 230 218 213 204 200 211
70 141 157 293 282 209 266 268 236 229 221 214 233 265 265 290 317 337 346 7 12 351 353 356 2 5 353 339 330 336 329 312 256 226 239 248 250 244 232 227 217 203 204 211
87 120 121 263 300 351 279 250 224 232 228 190 219 247 291 332 320 309 305 352 352 342 344 347 336 320 317 316 314 329 320 331 339 295 280 260 239 238 244 232 210 212 214 211
144 128 140 204 35 248 252 262 190 215 264 231 227 280 265 271 295 304 268 287 319 335 341 333 330 323 318 325 338 340 349 5 360 336 316 298 268 250 244 221 228 231 223 216
155 144 134 141 228 276 290 287 177 200 269 258 293 336 341 355 26 351 330 301 276 292 299 298 299 297 314 330 339 11 8 3 357 333 313 292 273 260 246 240 242 237 223 226
77 103 128 144 194 247 260 293 289 132 276 298 141 112 15 47 13 294 310 312 312 317 326 331 330 337 342 329 348 32 354 348 323 309 303 290 266 248 243 243 247 250 233 232
56 68 138 179 222 259 275 305 71 137 259 274 200 192 182 204 232 260 289 312 313 316 321 338 346 336 314 317 343 335 316 296 292 300 302 297 275 253 247 251 255 251 238 228
179 174 187 166 211 256 298 95 164 228 268 214 213 219 227 263 282 283 290 311 327 324 326 336 343 321 310 314 332 315 296 292 306 308 311 308 296 280 281 255 267 255 223 216
199 195 189 193 217 255 278 234 269 246 248 248 225 243 240 256 275 278 280 289 307 310 316 325 328 321 317 311 295 286 292 301 308 318 312 307 308 306 296 267 257 261 231 221
260 165 163 246 264 277 297 307 311 303 277 280 260 240 220 247 253 261 263 269 276 285 294 302 321 321 311 309 302 280 290 302 309 308 302 300 303 309 312 287 241 232 240 247
231 182 196 250 276 313 309 295 288 309 323 326 323 283 235 233 250 246 250 256 261 272 278 269 276 292 295 299 302 303 301 301 309 305 301 295 285 287 290 289 271 250 245 239
208 191 195 233 233 222 258 268 267 274 282 276 290 304 292 244 238 248 250 256 263 274 282 282 279 279 289 294 294 298 295 276 260 295 299 288 278 278 277 286 311 315 290 287
Height
1498 1504 1509 1508 1508 1510 1512 1516 1519 1515 1510 1513 1515 1514 1510 1509 1510 1510 1511 1512 1513 1514 1517 1519 1521 1523 1525 1526 1528 1529 1530 1531 1532 1533 1533 1534 1534 1535 1535 1535 1535 1535 1535 1535
1505 1507 1504 1503 1505 1508 1512 1516 1518 1514 1510 1512 1515 1514 1509 1507 1508 1507 1508 1509 1511 1513 1515 1517 1519 1521 1522 1524 1526 1527 1528 1530 1531 1531 1532 1533 1534 1534 1535 1535 1535 1535 1535 1535
1506 1505 1501 1503 1506 1509 1512 1515 1515 1515 1512 1512 1515 1516 1511 1507 1506 1506 1506 1507 1508 1510 1512 1514 1516 1518 1520 1522 1523 1525 1526 1528 1529 1530 1531 1532 1533 1533 1534 1534 1534 1534 1534 1534
1504 1501 1501 1503 1506 1508 1514 1508 1509 1512 1518 1524 1520 1530 1516 1510 1507 1505 1505 1505 1506 1507 1509 1511 1513 1515 1517 1519 1521 1523 1525 1526 1527 1528 1529 1530 1530 1531 1532 1532 1533 1533 1533 1533
1504 1501 1502 1504 1504 1504 1507 1505 1508 1512 1518 1525 1524 1529 1522 1512 1509 1506 1504 1503 1504 1505 1506 1508 1510 1512 1514 1517 1519 1521 1523 1524 1525 1527 1527 1528 1529 1530 1530 1531 1531 1532 1532 1532
1501 1499 1499 1500 1501 1502 1505 1509 1514 1519 1524 1533 1528 1530 1527 1516 1510 1506 1503 1502 1502 1503 1504 1505 1508 1510 1512 1515 1517 1518 1520 1521 1523 1524 1525 1526 1527 1528 1529 1529 1529 1530 1530 1530
1506 1501 1499 1499 1503 1505 1507 1519 1533 1534 1539 1537 1526 1528 1524 1509 1506 1505 1503 1501 1501 1501 1502 1503 1504 1507 1509 1511 1513 1515 1517 1518 1520 1522 1523 1524 1525 1526 1527 1527 1527 1528 1528 1528
1515 1514 1502 1499 1502 1507 1510 1517 1534 1541 1542 1537 1528 1528 1516 1506 1504 1503 1502 1501 1500 1500 1501 1501 1503 1504 1506 1508 1510 1512 1514 1515 1517 1519 1520 1522 1523 1524 1524 1525 1525 1525 1525 1526
1516 1514 1502 1499 1499 1503 1511 1517 1518 1531 1534 1538 1532 1524 1513 1504 1503 1502 1502 1501 1500 1499 1500 1500 1501 1502 1504 1506 1507 1509 1511 1512 1514 1516 1517 1518 1519 1520 1521 1522 1523 1523 1523 1523
1508 1514 1505 1501 1500 1503 1507 1514 1523 1530 1538 1540 1533 1527 1522 1510 1507 1504 1502 1501 1499 1498 1498 1499 1500 1501 1502 1504 1505 1507 1509 1510 1511 1513 1514 1515 1516 1517 1518 1519 1520 1520 1520 1520
1506 1514 1511 1506 1507 1510 1512 1516 1522 1530 1532 1539 1538 1530 1511 1510 1508 1506 1503 1501 1499 1498 1498 1498 1499 1500 1501 1502 1504 1505 1506 1508 1509 1510 1511 1512 1513 1514 1515 1516 1516 1517 1517 1517
1507 1515 1519 1512 1506 1505 1507 1512 1520 1529 1532 1535 1536 1529 1507 1507 1506 1505 1503 1501 1499 1498 1498 1498 1498 1499 1500 1501 1502 1503 1504 1505 1506 1507 1508 1509 1510 1511 1512 1512 1513 1514 1514 1514
1507 1515 1523 1520 1517 1511 1510 1512 1515 1522 1530 1536 1535 1525 1507 1506 1505 1504 1503 1501 1499 1498 1497 1497 1497 1498 1498 1499 1500 1501 1502 1503 1504 1505 1506 1506 1507 1507 1508 1509 1510 1510 1511 1511
1503 1513 1519 1522 1518 1513 1513 1512 1513 1519 1527 1530 1526 1518 1510 1507 1505 1504 1502 1501 1499 1498 1498 1497 1497 1497 1498 1498 1499 1499 1500 1501 1502 1503 1503 1503 1504 1504 1505 1505 1506 1507 1507 1507
1504 1512 1512 1512 1509 1509 1510 1510 1511 1513 1515 1519 1515 1514 1508 1506 1505 1504 1502 1500 1499 1498 1497 1497 1497 1496 1497 1497 1497 1498 1498 1499 1499 1500 1500 1501 1501 1501 1501 1502 1502 1503 1503 1504
1507 1511 1512 1512 1508 1509 1510 1509 1509 1509 1509 1511 1511 1510 1505 1504 1504 1502 1501 1500 1499 1498 1497 1497 1496 1496 1496 1496 1496 1496 1497 1497 1497 1497 1498 1498 1498 1498 1498 1498 1498 1499 1499 1500
1510 1512 1516 1518 1512 1509 1514 1509 1507 1507 1506 1506 1508 1507 1504 1504 1502 1501 1500 1499 1498 1497 1497 1497 1496 1496 1496 1495 1495 1495 1495 1495 1495 1495 1495 1495 1495 1494 1494 1494 1495 1495 1495 1496
1510 1514 1520 1521 1516 1519 1510 1502 1502 1504 1503 1503 1503 1503 1502 1502 1502 1500 1500 1499 1498 1497 1496 1496 1496 1495 1495 1495 1494 1494 1494 1493 1493 1493 1492 1492 1492 1491 1491 1491 1491 1491 1491 1491
1505 1511 1519 1523 1521 1515 1507 1503 1503 1504 1504 1502 1502 1501 1501 1501 1500 1499 1499 1498 1498 1497 1496 1496 1495 1495 1494 1493 1493 1492 1491 1491 1491 1490 1490 1489 1488 1488 1487 1487 1487 1487 1487 1487
1507 1509 1517 1521 1519 1517 1506 1500 1498 1501 1504 1500 1500 1500 1501 1500 1503 1500 1498 1497 1497 1496 1495 1494 1494 1493 1492 1491 1491 1490 1489 1488 1488 1487 1487 1487 1486 1484 1484 1483 1483 1483 1483 1483
1511 1514 1517 1519 1518 1511 1503 1499 1499 1508 1506 1499 1499 1499 1499 1499 1500 1499 1497 1496 1496 1495 1494 1493 1492 1491 1490 1489 1489 1488 1487 1486 1485 1485 1484 1484 1483 1482 1481 1480 1480 1479 1479 1479
1510 1513 1516 1518 1518 1512 1500 1500 1502 1502 1498 1497 1497 1497 1497 1497 1496 1496 1495 1494 1494 1493 1492 1490 1489 1489 1488 1487 1486 1485 1484 1483 1483 1482 1481 1480 1479 1478 1478 1477 1476 1475 1475 1474
1507 1507 1507 1508 1507 1500 1498 1498 1498 1497 1496 1495 1495 1495 1496 1495 1494 1494 1494 1493 1492 1491 1490 1488 1487 1486 1485 1485 1483 1482 1481 1480 1479 1478 1478 1477 1476 1475 1474 1473 1472 1471 1471 1470
1504 1502 1504 1504 1500 1498 1497 1496 1496 1495 1494 1494 1493 1493 1493 1493 1492 1492 1491 1491 1490 1489 1488 1486 1485 1483 1483 1482 1481 1480 1478 1477 1476 1474 1474 1473 1472 1471 1471 1470 1469 1468 1467 1467
1501 1501 1502 1501 1498 1496 1494 1494 1494 1493 1493 1492 1491 1491 1491 1490 1489 1489 1488 1487 1487 1486 1485 1484 1482 1481 1480 1479 1477 1476 1475 1474 1473 1471 1470 1469 1469 1468 1467 1467 1466 1465 1464 1464
1498 1498 1499 1498 1494 1494 1493 1492 1492 1491 1490 1489 1489 1488 1488 1487 1486 1485 1484 1484 1484 1483 1482 1481 1480 1479 1477 1476 1474 1473 1472 1471 1470 1468 1467 1466 1466 1465 1464 1463 1462 1461 1461 1460